When you browse on this site, cookies collect data to enhance your experience and personalize the content and advertising you see.
Visit our Privacy Policy to learn more. By continuing to use the site, you agree to this use of cookies and data.
  • In Hungary
  • List of Countries
  • For 7 days
  • Water Temperature
  • Satellite Maps
  • Weather Map
  • News
  • Weather Widgets
  • user-avatar
    Login

    Hourly Weather Huanggang

    Today, 18 December, Tuesday

    Time Temperature Precipitation Wind Pressure Humidity
    00:00 +12°C° 0 mm 4 mps 761 mmHg 49%
    01:00 +11°C° 0 mm 4 mps 761 mmHg 50%
    02:00 +11°C° 0 mm 4 mps 761 mmHg 52%
    03:00 +10°C° 0 mm 4 mps 761 mmHg 53%
    04:00 +10°C° 0 mm 4 mps 761 mmHg 53%
    05:00 +10°C° 0 mm 4 mps 761 mmHg 53%
    06:00 +10°C° 0 mm 4 mps 761 mmHg 53%
    07:00 +11°C° 0 mm 4 mps 761 mmHg 53%
    08:00 +11°C° 0 mm 4 mps 762 mmHg 52%
    09:00 +14°C° 0 mm 4 mps 761 mmHg 46%
    10:00 +17°C° 0 mm 4 mps 761 mmHg 40%
    11:00 +19°C° 0 mm 5 mps 761 mmHg 33%
    12:00 +20°C° 0 mm 5 mps 761 mmHg 31%
    13:00 +21°C° 0 mm 5 mps 760 mmHg 30%
    14:00 +22°C° 0 mm 4 mps 759 mmHg 27%
    15:00 +21°C° 0 mm 4 mps 759 mmHg 32%
    16:00 +20°C° 0 mm 4 mps 759 mmHg 37%
    17:00 +19°C° 0 mm 4 mps 759 mmHg 43%
    18:00 +18°C° 0 mm 4 mps 759 mmHg 45%
    19:00 +17°C° 0 mm 4 mps 759 mmHg 46%
    20:00 +14°C° 0 mm 3 mps 760 mmHg 43%
    21:00 +14°C° 0 mm 3 mps 760 mmHg 44%
    22:00 +14°C° 0 mm 3 mps 760 mmHg 45%
    23:00 +13°C° 0 mm 3 mps 760 mmHg 45%

    Tomorrow, 19 December, Wednesday

    Time Temperature Precipitation Wind Pressure Humidity
    00:00 +13°C° 0 mm 3 mps 760 mmHg 46%
    01:00 +13°C° 0 mm 3 mps 760 mmHg 47%
    02:00 +13°C° 0 mm 3 mps 760 mmHg 48%
    03:00 +12°C° 0 mm 3 mps 760 mmHg 48%
    04:00 +12°C° 0 mm 3 mps 760 mmHg 49%
    05:00 +12°C° 0 mm 3 mps 759 mmHg 50%
    06:00 +13°C° 0 mm 3 mps 760 mmHg 51%
    07:00 +14°C° 0 mm 3 mps 760 mmHg 53%
    08:00 +14°C° 0 mm 3 mps 760 mmHg 54%
    09:00 +17°C° 0 mm 3 mps 760 mmHg 52%
    10:00 +19°C° 0 mm 3 mps 760 mmHg 51%
    11:00 +21°C° 0 mm 3 mps 760 mmHg 49%
    12:00 +22°C° 0 mm 3 mps 759 mmHg 51%
    13:00 +24°C° 0 mm 3 mps 758 mmHg 52%
    14:00 +24°C° 0 mm 3 mps 758 mmHg 53%
    15:00 +24°C° 0 mm 3 mps 758 mmHg 58%
    16:00 +23°C° 0 mm 2 mps 758 mmHg 62%
    17:00 +21°C° 0 mm 2 mps 757 mmHg 67%
    18:00 +20°C° 0 mm 2 mps 758 mmHg 71%
    19:00 +19°C° 0 mm 2 mps 758 mmHg 75%
    20:00 +18°C° 0 mm 2 mps 758 mmHg 80%
    21:00 +19°C° 0 mm 1 mps 758 mmHg 81%
    22:00 +18°C° 0 mm 1 mps 758 mmHg 83%
    23:00 +18°C° 0 mm 1 mps 758 mmHg 85%

    Day after tomorrow, 20 December, Thursday

    Time Temperature Precipitation Wind Pressure Humidity
    00:00 +18°C° 0 mm 1 mps 758 mmHg 86%
    01:00 +18°C° 0 mm 1 mps 758 mmHg 87%
    02:00 +18°C° 0 mm 1 mps 758 mmHg 88%
    03:00 +18°C° 0 mm 1 mps 758 mmHg 88%
    04:00 +18°C° 0 mm 1 mps 757 mmHg 89%
    05:00 +16°C° 0 mm 2 mps 757 mmHg 90%
    06:00 +18°C° 0 mm 1 mps 757 mmHg 87%
    07:00 +19°C° 0 mm 1 mps 757 mmHg 85%
    08:00 +20°C° 0 mm 1 mps 757 mmHg 83%
    09:00 +22°C° 0 mm 1 mps 757 mmHg 76%
    10:00 +24°C° 0 mm 1 mps 757 mmHg 70%
    11:00 +26°C° 0 mm 1 mps 757 mmHg 63%
    12:00 +26°C° 0 mm 1 mps 756 mmHg 62%
    13:00 +27°C° 0 mm 2 mps 755 mmHg 60%
    14:00 +28°C° 0 mm 2 mps 755 mmHg 58%
    15:00 +27°C° 0 mm 2 mps 754 mmHg 62%
    16:00 +26°C° 0 mm 2 mps 754 mmHg 66%
    17:00 +25°C° 0 mm 2 mps 754 mmHg 70%
    18:00 +24°C° 0 mm 2 mps 754 mmHg 75%
    19:00 +23°C° 0 mm 2 mps 755 mmHg 79%
    20:00 +21°C° 0 mm 2 mps 755 mmHg 84%
    21:00 +21°C° 0 mm 2 mps 756 mmHg 86%
    22:00 +21°C° 0 mm 1 mps 756 mmHg 89%
    23:00 +21°C° 0 mm 1 mps 756 mmHg 92%

    21 December, Friday

    Time Temperature Precipitation Wind Pressure Humidity
    00:00 +21°C° 0 mm 1 mps 756 mmHg 91%
    01:00 +20°C° 0 mm 2 mps 755 mmHg 91%
    02:00 +20°C° 0 mm 2 mps 755 mmHg 91%
    03:00 +20°C° 0 mm 2 mps 755 mmHg 91%
    04:00 +20°C° 0 mm 2 mps 755 mmHg 92%
    05:00 +20°C° 0 mm 2 mps 755 mmHg 92%
    06:00 +20°C° 0 mm 2 mps 755 mmHg 91%
    07:00 +20°C° 0 mm 2 mps 756 mmHg 90%
    08:00 +21°C° 0 mm 3 mps 757 mmHg 88%
    09:00 +22°C° 0 mm 3 mps 757 mmHg 82%
    10:00 +25°C° 0 mm 3 mps 757 mmHg 76%
    11:00 +26°C° 0 mm 3 mps 757 mmHg 69%
    12:00 +27°C° 0 mm 3 mps 756 mmHg 66%
    13:00 +27°C° 0 mm 4 mps 756 mmHg 63%
    14:00 +28°C° 0 mm 4 mps 755 mmHg 60%
    15:00 +27°C° 0 mm 4 mps 755 mmHg 64%
    16:00 +27°C° 0 mm 4 mps 755 mmHg 68%
    17:00 +26°C° 0 mm 4 mps 754 mmHg 71%
    18:00 +25°C° 0 mm 4 mps 755 mmHg 76%
    19:00 +23°C° 0 mm 4 mps 755 mmHg 80%
    20:00 +21°C° 0 mm 4 mps 756 mmHg 84%
    21:00 +21°C° 0 mm 4 mps 756 mmHg 86%
    22:00 +21°C° 0 mm 4 mps 756 mmHg 88%
    23:00 +20°C° 0 mm 4 mps 756 mmHg 90%

    22 December, Saturday

    Time Temperature Precipitation Wind Pressure Humidity
    00:00 +20°C° 0 mm 4 mps 756 mmHg 91%
    01:00 +20°C° 0 mm 4 mps 756 mmHg 91%
    02:00 +19°C° 0 mm 4 mps 756 mmHg 92%
    03:00 +19°C° 0 mm 4 mps 756 mmHg 92%
    04:00 +19°C° 0 mm 4 mps 756 mmHg 93%
    05:00 +19°C° 0 mm 4 mps 756 mmHg 93%
    06:00 +19°C° 0 mm 4 mps 756 mmHg 91%
    07:00 +20°C° 0 mm 5 mps 757 mmHg 88%
    08:00 +20°C° 0 mm 5 mps 757 mmHg 86%
    09:00 +22°C° 0 mm 5 mps 757 mmHg 78%
    10:00 +25°C° 0 mm 5 mps 757 mmHg 70%
    11:00 +26°C° 0 mm 5 mps 757 mmHg 62%
    12:00 +27°C° 0 mm 5 mps 757 mmHg 59%
    13:00 +28°C° 0 mm 5 mps 756 mmHg 57%
    14:00 +29°C° 0 mm 5 mps 755 mmHg 54%
    15:00 +28°C° 0 mm 5 mps 755 mmHg 59%
    16:00 +27°C° 0 mm 5 mps 755 mmHg 64%
    17:00 +26°C° 0 mm 5 mps 755 mmHg 69%
    18:00 +25°C° 0 mm 5 mps 756 mmHg 74%
    19:00 +23°C° 0 mm 5 mps 757 mmHg 78%
    20:00 +22°C° 0 mm 5 mps 757 mmHg 83%
    21:00 +22°C° 0 mm 5 mps 758 mmHg 83%
    22:00 +22°C° 0 mm 5 mps 758 mmHg 84%
    23:00 +22°C° 0 mm 5 mps 758 mmHg 85%

    23 December, Sunday

    Time Temperature Precipitation Wind Pressure Humidity
    00:00 +21°C° 0.1 mm 5 mps 758 mmHg 86%
    01:00 +21°C° 0.1 mm 5 mps 757 mmHg 87%
    02:00 +21°C° 0.1 mm 5 mps 757 mmHg 88%
    03:00 +21°C° 0.1 mm 5 mps 757 mmHg 88%
    04:00 +21°C° 0.1 mm 5 mps 757 mmHg 88%
    05:00 +21°C° 0.1 mm 5 mps 757 mmHg 88%
    06:00 +21°C° 0.2 mm 5 mps 757 mmHg 88%
    07:00 +21°C° 0.2 mm 5 mps 758 mmHg 87%
    08:00 +21°C° 0.2 mm 4 mps 758 mmHg 87%
    09:00 +22°C° 0.3 mm 5 mps 758 mmHg 83%
    10:00 +22°C° 0.3 mm 5 mps 758 mmHg 79%
    11:00 +23°C° 0.3 mm 5 mps 758 mmHg 76%
    12:00 +23°C° 0.4 mm 5 mps 758 mmHg 77%
    13:00 +23°C° 0.4 mm 5 mps 757 mmHg 78%
    14:00 +23°C° 0.4 mm 5 mps 756 mmHg 79%
    15:00 +22°C° 0.5 mm 5 mps 756 mmHg 82%
    16:00 +21°C° 0.5 mm 5 mps 757 mmHg 86%
    17:00 +21°C° 0.5 mm 5 mps 757 mmHg 89%
    18:00 +21°C° 0.5 mm 6 mps 757 mmHg 90%
    19:00 +20°C° 0.5 mm 6 mps 757 mmHg 90%
    20:00 +20°C° 0.5 mm 6 mps 758 mmHg 91%
    21:00 +20°C° 0.4 mm 6 mps 758 mmHg 90%
    22:00 +20°C° 0.4 mm 7 mps 758 mmHg 90%
    23:00 +20°C° 0.4 mm 7 mps 758 mmHg 90%
    Show more